TimePST,TemperatureF,Dew PointF,Humidity,Sea Level PressureIn,VisibilityMPH,Wind Direction,Wind SpeedMPH,Gust SpeedMPH,PrecipitationIn,Events,Conditions,WindDirDegrees,DateUTC
12:53 AM,39.0,33.1,79,30.19,10.0,Calm,Calm,-,N/A,,Clear,0,2012-11-06 08:53:00
1:53 AM,39.9,34.0,79,30.18,10.0,East,3.5,-,N/A,,Clear,80,2012-11-06 09:53:00
2:53 AM,39.0,34.0,82,30.17,10.0,ENE,4.6,-,N/A,,Clear,60,2012-11-06 10:53:00
3:53 AM,36.0,30.9,82,30.16,10.0,Calm,Calm,-,N/A,,Clear,0,2012-11-06 11:53:00
4:53 AM,36.0,30.0,79,30.15,10.0,Calm,Calm,-,N/A,,Clear,0,2012-11-06 12:53:00
5:53 AM,36.0,30.0,79,30.14,10.0,Calm,Calm,-,N/A,,Clear,0,2012-11-06 13:53:00
6:53 AM,35.1,30.0,82,30.13,10.0,Calm,Calm,-,N/A,,Clear,0,2012-11-06 14:53:00
7:53 AM,37.9,33.1,83,30.13,10.0,Calm,Calm,-,N/A,,Clear,0,2012-11-06 15:53:00
8:53 AM,42.1,36.0,79,30.11,10.0,Calm,Calm,-,N/A,,Clear,0,2012-11-06 16:53:00
9:53 AM,48.0,39.0,71,30.09,10.0,Calm,Calm,-,N/A,,Clear,0,2012-11-06 17:53:00
10:53 AM,51.1,39.0,63,30.05,10.0,Calm,Calm,-,N/A,,Clear,0,2012-11-06 18:53:00
11:53 AM,55.0,39.0,55,30.02,10.0,Calm,Calm,-,N/A,,Clear,0,2012-11-06 19:53:00
12:53 PM,57.0,37.9,49,29.97,10.0,SE,4.6,-,N/A,,Clear,140,2012-11-06 20:53:00
1:53 PM,59.0,37.0,44,29.95,10.0,Calm,Calm,-,N/A,,Clear,0,2012-11-06 21:53:00
2:53 PM,59.0,36.0,42,29.94,10.0,Calm,Calm,-,N/A,,Clear,0,2012-11-06 22:53:00
3:53 PM,57.0,37.9,49,29.93,10.0,Calm,Calm,-,N/A,,Partly Cloudy,0,2012-11-06 23:53:00
4:53 PM,53.1,37.9,57,29.92,10.0,Calm,Calm,-,N/A,,Clear,0,2012-11-07 00:53:00
5:53 PM,52.0,39.0,61,29.93,10.0,Variable,3.5,-,N/A,,Clear,0,2012-11-07 01:53:00
6:53 PM,55.9,44.1,64,29.92,10.0,WNW,12.7,19.6,N/A,,Clear,290,2012-11-07 02:53:00
7:53 PM,55.9,44.1,64,29.91,10.0,NW,6.9,-,N/A,,Partly Cloudy,310,2012-11-07 03:53:00
8:53 PM,54.0,44.1,69,29.92,10.0,NW,9.2,-,N/A,,Partly Cloudy,310,2012-11-07 04:53:00
9:53 PM,52.0,39.9,63,29.93,10.0,NW,20.7,29.9,N/A,,Partly Cloudy,320,2012-11-07 05:53:00
10:53 PM,51.1,39.0,63,29.93,10.0,NW,21.9,28.8,N/A,,Scattered Clouds,310,2012-11-07 06:53:00
11:53 PM,50.0,35.1,57,29.94,10.0,NW,24.2,31.1,N/A,,Clear,310,2012-11-07 07:53:00